TimeCST,TemperatureF,Dew PointF,Humidity,Sea Level PressureIn,VisibilityMPH,Wind Direction,Wind SpeedMPH,Gust SpeedMPH,PrecipitationIn,Events,Conditions,WindDirDegrees,DateUTC
12:53 AM,53.1,46.0,77,30.16,10.0,South,6.9,-,N/A,,Overcast,180,2013-11-05 06:53:00
1:53 AM,53.1,46.0,77,30.17,10.0,South,6.9,-,N/A,,Overcast,190,2013-11-05 07:53:00
2:53 AM,53.1,46.0,77,30.17,10.0,South,5.8,-,N/A,,Overcast,180,2013-11-05 08:53:00
3:53 AM,53.1,46.0,77,30.18,10.0,South,5.8,-,N/A,,Overcast,190,2013-11-05 09:53:00
4:53 AM,53.1,46.0,77,30.18,10.0,South,6.9,-,N/A,,Overcast,180,2013-11-05 10:53:00
5:53 AM,53.1,46.0,77,30.19,10.0,South,9.2,-,N/A,,Overcast,180,2013-11-05 11:53:00
6:53 AM,52.0,48.0,86,30.19,10.0,South,6.9,-,N/A,,Overcast,180,2013-11-05 12:53:00
7:53 AM,52.0,50.0,93,30.21,10.0,South,9.2,-,N/A,,Overcast,170,2013-11-05 13:53:00
8:05 AM,51.8,50.0,94,30.20,9.0,South,8.1,-,N/A,,Overcast,170,2013-11-05 14:05:00
8:38 AM,51.8,51.8,100,30.19,2.0,SSE,8.1,-,N/A,,Overcast,160,2013-11-05 14:38:00
8:53 AM,52.0,51.1,97,30.19,2.0,South,9.2,-,N/A,,Overcast,170,2013-11-05 14:53:00
9:20 AM,51.8,51.8,100,30.18,3.0,South,9.2,-,N/A,,Overcast,170,2013-11-05 15:20:00
9:53 AM,52.0,51.1,97,30.18,2.5,South,9.2,-,N/A,,Overcast,170,2013-11-05 15:53:00
10:02 AM,51.8,51.8,100,30.18,3.0,South,8.1,-,N/A,,Overcast,170,2013-11-05 16:02:00
10:53 AM,53.1,52.0,96,30.17,5.0,SSE,8.1,-,0.00,Rain,Light Rain,160,2013-11-05 16:53:00
11:53 AM,53.1,52.0,96,30.13,5.0,South,8.1,-,0.02,Rain,Light Rain,170,2013-11-05 17:53:00
12:53 PM,54.0,53.1,97,30.09,5.0,SSE,10.4,-,0.00,,Overcast,160,2013-11-05 18:53:00
1:38 PM,55.4,53.6,94,30.06,9.0,South,12.7,-,0.01,Rain,Light Rain,170,2013-11-05 19:38:00
1:53 PM,55.0,53.1,93,30.06,10.0,South,12.7,-,0.01,,Overcast,180,2013-11-05 19:53:00
2:27 PM,55.4,53.6,94,30.03,10.0,SSE,10.4,-,N/A,,Overcast,160,2013-11-05 20:27:00
2:53 PM,57.0,53.1,87,30.03,10.0,SSE,11.5,-,N/A,,Overcast,160,2013-11-05 20:53:00
3:53 PM,55.9,52.0,87,30.01,10.0,SSE,12.7,19.6,0.00,,Overcast,160,2013-11-05 21:53:00
4:16 PM,55.4,51.8,88,30.00,10.0,SSE,11.5,-,N/A,,Overcast,160,2013-11-05 22:16:00
4:26 PM,55.4,51.8,88,30.01,9.0,SSE,12.7,-,N/A,,Overcast,160,2013-11-05 22:26:00
4:53 PM,54.0,52.0,93,29.99,7.0,South,11.5,-,N/A,,Overcast,170,2013-11-05 22:53:00
5:45 PM,55.4,51.8,88,29.98,6.0,SSE,12.7,23.0,0.00,Rain,Light Rain,160,2013-11-05 23:45:00
5:53 PM,54.0,52.0,93,29.98,4.0,SSE,15.0,23.0,0.00,Rain,Light Rain,150,2013-11-05 23:53:00
6:03 PM,53.6,53.6,100,29.98,3.0,SSE,16.1,24.2,0.02,Rain,Light Rain,160,2013-11-06 00:03:00
6:53 PM,54.0,53.1,97,29.96,6.0,South,15.0,23.0,0.02,,Overcast,170,2013-11-06 00:53:00
7:53 PM,55.0,53.1,93,29.95,8.0,South,19.6,24.2,N/A,,Overcast,170,2013-11-06 01:53:00
8:53 PM,55.0,53.1,93,29.93,9.0,South,15.0,25.3,N/A,,Overcast,180,2013-11-06 02:53:00
9:53 PM,55.0,54.0,96,29.91,5.0,South,16.1,21.9,0.02,Rain,Light Rain,190,2013-11-06 03:53:00
10:05 PM,55.4,53.6,94,29.91,8.0,South,16.1,23.0,0.00,Rain,Light Rain,190,2013-11-06 04:05:00
10:53 PM,55.9,55.9,100,29.90,8.0,South,12.7,-,0.03,,Overcast,190,2013-11-06 04:53:00
11:53 PM,57.0,55.0,93,29.88,8.0,South,13.8,23.0,0.00,Rain,Light Rain,190,2013-11-06 05:53:00